Location: Brustico
(42.3574°N, 9.3673°E)
Time: 17:46:37
(UTC+00:00)

Daily predictions for brighter satellites

Satellite Brightness Start Highest point End
(mag) Time Altitude Azimuth Time Altitude Azimuth Time Altitude Azimuth
Sich 1 4.2 16:25:52 10° NNE 16:29:14 22° ENE 16:32:38 10° SE
PSLV R/B 4.0 16:25:24 10° NNE 16:29:39 88° ESE 16:33:52 10° SSW
Envisat 3.8 16:26:42 10° SE 16:30:59 28° ENE 16:35:17 10° N
ALOS 3.8 16:28:33 10° S 16:32:58 42° W 16:37:24 10° NNW
TELKOM 3 4.0 16:31:26 10° NW 16:33:19 25° NNE 16:35:09 10° E
Cosmos 1356 Rocket 4.2 16:34:08 10° SSE 16:37:48 31° E 16:41:32 10° NNE
PSLV R/B 2.8 16:37:03 10° WSW 16:39:34 63° S 16:42:04 10° E
SMAP 3.0 16:35:52 10° SSE 16:40:28 69° ENE 16:45:07 10° N
SeaSat 1 2.9 16:35:59 10° ESE 16:40:31 38° NE 16:45:04 10° NNW
Cosmos 2219 3.1 16:38:03 10° NNW 16:43:41 71° ENE 16:49:16 10° SSE
Lacrosse 4 Rocket 2.5 16:43:29 10° SSE 16:46:52 25° ESE 16:49:58 11° NE
Cosmos 1869 3.4 16:45:05 10° S 16:48:55 52° E 16:52:46 10° NNE
Cosmos 2221 2.9 16:45:34 10° SSW 16:49:50 67° W 16:54:10 10° N
YAOGAN 6 3.8 16:47:28 10° ESE 16:50:05 20° ENE 16:52:43 10° NNE
YAOGAN 1 3.8 16:50:17 10° ESE 16:53:26 20° ENE 16:56:36 10° NNE
IRS-1C Rocket 4.4 16:49:42 10° S 16:54:58 73° WSW 17:00:16 10° NNW
Cosmos 1980 Rocket 3.6 16:54:31 10° SE 16:58:15 18° E 17:00:32 15° ENE
CORIOLIS 4.1 16:53:31 10° SSE 16:58:56 85° ENE 17:04:23 10° NNW
CZ-4 R/B 2.3 16:55:54 10° SE 16:59:27 28° ENE 17:02:57 10° N
Geosat 4.0 16:55:20 10° NNE 17:00:23 76° ESE 17:05:24 10° SSW
ERBS 2.5 16:57:23 10° SSW 17:00:36 53° SE 17:02:51 18° ENE
Cosmos 1238 Rocket 3.4 16:58:41 10° NNW 17:02:59 59° W 17:06:30 10° S
Cosmos 2227 Rocket 2.2 16:57:37 10° NNW 17:03:16 63° ENE 17:08:51 10° SE
Cosmos 2297 Rocket 2.1 16:57:43 10° NNW 17:03:23 68° ENE 17:09:00 10° SSE
Cosmos 1680 Rocket 4.2 17:02:22 10° SSE 17:06:56 32° E 17:10:57 13° NE
Okean-O 2.5 17:04:33 10° SSE 17:08:59 81° ENE 17:13:26 10° N
FengYun 1-2 T 4.4 17:05:05 10° SE 17:10:23 50° ENE 17:15:41 10° N
Ariane Rocket 4.4 17:14:22 18° ENE 17:14:22 18° ENE 17:17:32 10° NNE
SKYMED 2 3.7 17:11:08 10° NNE 17:15:23 51° E 17:19:37 10° S
H-2A R/B 3.7 17:12:26 10° S 17:16:12 52° W 17:19:58 10° NNW
Cosmos 2369 3.8 17:13:29 10° S 17:18:58 54° ESE 17:24:08 12° NNE
Cosmos 1805 Rocket 3.9 17:20:44 10° NNW 17:25:05 67° W 17:29:24 10° S
Cosmos 2263 Rocket 3.9 17:22:58 10° NNE 17:25:09 14° NE 17:25:09 14° NE
TRAILBLAZER 4.5 17:25:40 10° NNW 17:30:17 70° NE 17:34:09 14° SE
Cosmos 2082 3.6 17:25:33 10° NNW 17:31:09 66° ENE 17:36:43 10° SE
Cosmos 923 Rocket 3.9 17:26:16 10° S 17:31:28 71° ESE 17:36:20 12° NNE
Cosmos 1697 Rocket 2.6 17:31:54 10° SSW 17:37:31 72° ESE 17:42:03 16° NNE
Cosmos 2278 3.7 17:33:09 10° S 17:38:41 58° ESE 17:42:21 22° NE
Cosmos 2056 Rocket 4.2 17:34:31 10° N 17:38:47 30° NE 17:38:47 30° NE
ATLAS 5 CENTAUR R/B 2.8 17:35:50 10° NW 17:41:44 69° WSW 17:48:26 10° SSE
Cosmos 1862 3.2 17:39:07 10° N 17:43:07 88° E 17:47:06 10° S
BREEZE-M DEB (TANK) 4.1 17:46:06 10° NW 17:47:37 18° NNW 17:47:37 18° NNW
Cosmos 1464 Rocket 4.1 17:44:03 10° N 17:50:13 77° W 17:56:19 10° S
Cosmos 1633 Rocket 3.2 17:50:08 10° N 17:54:33 76° W 17:58:56 10° S
USA 215 3.8 17:56:07 34° ENE 17:57:55 40° NNE 18:03:55 10° NW
Cosmos 397 4.3 17:57:32 10° NNW 18:01:35 73° NE 18:01:35 73° NE
Cosmos 1633 4.1 17:59:21 10° NNW 18:02:44 37° W 18:06:06 10° SSW
COSMO-SKYMED 1 3.5 17:59:11 10° N 18:03:21 47° WNW 18:07:30 10° SW
DMSP B5D1-3 4.4 18:03:21 31° NNE 18:05:50 72° ESE 18:10:58 10° S
NOSS 2-3 (E) 3.8 18:03:20 10° SW 18:07:38 72° NW 18:08:54 47° NNE
Cosmos 1515 Rocket 3.8 18:03:33 10° S 18:07:01 53° SSE 18:07:01 53° SSE
Cosmos 1328 Rocket 3.8 18:04:03 10° SSW 18:08:26 68° W 18:11:27 20° N
NOAA 11 4.0 18:04:47 10° SSE 18:10:11 79° ENE 18:15:38 10° N
Cosmos 1151 Rocket 3.2 18:06:53 10° SSW 18:11:13 69° W 18:13:22 29° N
NOSS 3-1 (A) 4.0 18:10:03 10° WSW 18:15:26 51° NW 18:18:58 24° NNE
NOSS 2-3 (D) 4.0 18:12:50 10° SW 18:17:07 64° NW 18:17:54 54° N
SeaSat 1 4.3 18:13:46 10° S 18:18:04 30° WSW 18:22:23 10° NW
Cosmos 1932 4.4 18:14:32 10° NNW 18:21:06 75° NE 18:22:24 58° ESE
Lacrosse 4 Rocket 3.0 18:21:51 10° WSW 18:25:25 29° NW 18:26:18 26° NNW
YAOGAN 1 3.9 18:25:14 10° SSW 18:29:16 38° W 18:33:20 10° NNW
Cosmos 1371 Rocket 3.9 18:24:08 10° NNW 18:29:08 81° NW 18:29:08 81° NW
CZ-4 R/B 3.7 18:30:58 10° SSW 18:34:24 25° W 18:37:49 10° NW
Cosmos 1470 Rocket 4.5 18:32:36 10° NNW 18:36:56 48° W 18:37:27 46° WSW
Cosmos 1980 Rocket 2.5 18:36:02 10° SW 18:41:38 65° WNW 18:42:22 59° NNW
Cosmos 724 4.4 18:37:01 10° NW 18:42:48 68° WSW 18:43:11 66° SW
Ariane Rocket 4.2 18:54:36 35° NW 18:54:36 35° NW 18:57:39 10° NNW
CENTAUR R/B 4.5 18:52:09 10° NNW 18:56:35 22° NNE 18:56:35 22° NNE
Cosmos 2263 Rocket 4.1 19:05:10 10° NNW 19:06:53 21° NNW 19:06:53 21° NNW
USA 215 4.4 19:43:29 37° WNW 19:43:29 37° WNW 19:47:11 10° NW
